Flag for Faroe Islands Weather past 2 weeks in Tórshavn, Faroe Islands, Faroe Islands

Now
55 °F

Passing clouds.


Feels Like: 53 °F
Forecast: 52 / 56 °F
Wind: 10 mph from Southeast

Location: Soervaag / Vagar

Current Time: Aug 27, 2014 at 12:38:45 PM

Latest Report: Aug 27, 2014 at 12:20 PM


Visibility: N/A

Pressure: 30.01 "Hg

Humidity: 82%

Dew point: 50 °F

Location of TórshavnLocation

Historic Weather in Tórshavn — Graph

°F

Tórshavn temperature yesterday

Maximum temperature yesterday: 55 °F (at 1:50 PM)
Minimum temperature yesterday: 43 °F (at 2:50 AM)
Average temperature yesterday: 49 °F

Past Weeks' High & Low Weather Summary

 TemperatureHumidityPressure
High59 °F (Aug 12, 2:50 PM)100% (Aug 15, 1:50 AM)30.04 "Hg (Aug 15, 1:50 AM)
Low43 °F (Aug 26, 2:50 AM)62% (Aug 23, 11:50 AM)29.27 "Hg (Aug 16, 11:50 AM)
Average50 °F85%29.83 "Hg
* Reported Aug 12 11:20 AM — Aug 27 11:20 AM, Tórshavn, Weather by CustomWeather, © 2014

Note: Actual official high and low records may vary slightly from our data, if they occured in-between our weather recording intervals... More about our weather records

Advertising

Tórshavn weather history for previous 24 hours

 ConditionsComfort  
Time TempWeatherWind HumidityBarometerVisibility
11:20 AM
Aug 27
55 °FCool.9 mph77%30.04 "HgN/A
10:50 AM55 °FCool.10 mph72%30.04 "HgN/A
10:20 AM55 °FCool.8 mph72%30.04 "HgN/A
9:50 AM54 °FCool.9 mph77%30.04 "HgN/A
9:20 AM54 °FCool.8 mph77%30.04 "HgN/A
8:50 AM52 °FCool.8 mph88%30.04 "HgN/A
8:20 AM50 °FCool.9 mph94%30.04 "HgN/A
7:50 AM50 °FCool.8 mph94%30.04 "HgN/A
7:20 AM50 °FPassing clouds.5 mph82%30.04 "HgN/A
6:50 AM48 °FPassing clouds.8 mph94%30.04 "HgN/A
6:20 AM46 °FPassing clouds.8 mph93%30.04 "HgN/A
5:50 AM46 °FPassing clouds.8 mph93%30.04 "HgN/A
5:20 AM48 °FPassing clouds.7 mph94%30.04 "HgN/A
4:50 AM46 °FPassing clouds.5 mph100%30.04 "HgN/A
4:20 AM48 °FLow clouds.5 mph94%30.04 "HgN/A
3:50 AM50 °FLow clouds.5 mph94%30.04 "HgN/A
3:20 AM50 °FPassing clouds.6 mph94%30.04 "HgN/A
2:50 AM50 °FLow clouds.5 mph94%30.04 "HgN/A
2:20 AM50 °FPassing clouds.7 mph94%30.04 "HgN/A
1:50 AM50 °FPassing clouds.6 mph94%30.04 "HgN/A
1:20 AM50 °FPassing clouds.7 mph94%30.04 "HgN/A
12:50 AM50 °FPassing clouds.8 mph100%30.04 "HgN/A
12:20 AM50 °FPassing clouds.7 mph100%30.04 "HgN/A
11:50 PM
Aug 26
50 °FLow clouds.6 mph100%30.04 "HgN/A
11:20 PM50 °FPassing clouds.5 mph100%30.04 "HgN/A
10:20 PM50 °FPartly sunny.6 mph100%30.04 "HgN/A
9:50 PM52 °FPartly sunny.7 mph94%30.04 "HgN/A
9:20 PM52 °FPartly sunny.5 mph94%30.04 "HgN/A
8:50 PM50 °FPartly sunny.7 mph94%30.04 "HgN/A
8:20 PM52 °FPartly sunny.7 mph94%30.04 "HgN/A
7:50 PM50 °FPartly sunny.6 mph100%30.04 "HgN/A
7:20 PM52 °FPartly sunny.8 mph94%30.01 "HgN/A
6:50 PM52 °FPartly sunny.8 mph94%30.01 "HgN/A
6:20 PM52 °FPartly sunny.8 mph94%30.01 "HgN/A
5:50 PM52 °FPartly sunny.8 mph94%30.01 "HgN/A
5:20 PM52 °FPartly sunny.8 mph88%30.01 "HgN/A
4:50 PM54 °FPartly sunny.8 mph88%30.01 "HgN/A
4:20 PM54 °FPartly sunny.8 mph82%30.01 "HgN/A
3:50 PM54 °FPartly sunny.8 mph82%30.01 "HgN/A
3:20 PM54 °FPartly sunny.7 mph77%30.01 "HgN/A
2:50 PM54 °FPartly sunny.8 mph82%30.01 "HgN/A
2:20 PM54 °FPartly sunny.8 mph82%30.01 "HgN/A
1:50 PM55 °FPartly sunny.7 mph77%30.01 "HgN/A
1:20 PM54 °FPartly sunny.7 mph82%30.01 "HgN/A
12:50 PM54 °FPartly sunny.8 mph82%30.01 "HgN/A
12:20 PM54 °FPartly sunny.7 mph82%30.01 "HgN/A
Weather by CustomWeather, © 2014

See weather overviewHow to use our weather pages